CCA8333 ZSPD-ZBHH

Flight info

Callsign CCA8333
Flight time 2h 32m
Altitude 36100
Route PIK96D PIKAS G330 UNTAN G345 OLRIS R343 HFE B208 TODAM TODAM8XA
Aircraft A20N/M-SDE2E3FGHIRWXY/LB1

Departure

Time 2026-05-07 09:23
Airport Shanghai Pudong International Airport (ZSPD)

Arrival

Time 2026-05-07 11:56
Airport Hohhot Baita International Airport (ZBHH)
Time Latitude Longitude Altitude Speed Heading
2026-05-07 08:57 31.14894 121.81114 26 ft 0 kts 71°
2026-05-07 09:06 31.14890 121.81101 26 ft 3 kts 71°
2026-05-07 09:06 31.14884 121.81078 29 ft 3 kts 71°
2026-05-07 09:06 31.14878 121.81058 31 ft 3 kts 73°
2026-05-07 09:06 31.14875 121.81036 28 ft 3 kts 100°
2026-05-07 09:07 31.14882 121.81017 27 ft 3 kts 141°
2026-05-07 09:07 31.14899 121.81006 30 ft 3 kts 164°
2026-05-07 09:07 31.14918 121.81001 30 ft 2 kts 165°
2026-05-07 09:07 31.14929 121.80997 28 ft 2 kts 162°
2026-05-07 09:08 31.14944 121.80992 29 ft 1 kts 162°
2026-05-07 09:08 31.14945 121.80991 29 ft 0 kts 162°
2026-05-07 09:14 31.14944 121.80991 29 ft 1 kts 162°
2026-05-07 09:14 31.14924 121.80999 31 ft 4 kts 162°
2026-05-07 09:15 31.14894 121.81010 26 ft 7 kts 161°
2026-05-07 09:15 31.14830 121.81035 26 ft 10 kts 155°
2026-05-07 09:15 31.14803 121.81097 27 ft 9 kts 82°
2026-05-07 09:15 31.14823 121.81170 27 ft 10 kts 69°
2026-05-07 09:16 31.14844 121.81246 29 ft 10 kts 73°
2026-05-07 09:16 31.14854 121.81334 26 ft 11 kts 117°
2026-05-07 09:16 31.14788 121.81372 29 ft 14 kts 162°
2026-05-07 09:16 31.14664 121.81419 27 ft 21 kts 162°
2026-05-07 09:17 31.14575 121.81452 27 ft 21 kts 162°
2026-05-07 09:17 31.14465 121.81495 25 ft 20 kts 161°
2026-05-07 09:17 31.14358 121.81535 30 ft 0 kts 162°
2026-05-07 09:18 31.14343 121.81540 29 ft 7 kts 163°
2026-05-07 09:18 31.14292 121.81559 27 ft 11 kts 162°
2026-05-07 09:19 31.14167 121.81606 29 ft 27 kts 163°
2026-05-07 09:19 31.13988 121.81677 27 ft 27 kts 161°
2026-05-07 09:19 31.13817 121.81737 26 ft 26 kts 160°
2026-05-07 09:19 31.13732 121.81771 26 ft 25 kts 163°
2026-05-07 09:20 31.13679 121.81792 27 ft 24 kts 162°
2026-05-07 09:20 31.13517 121.81853 26 ft 24 kts 162°
2026-05-07 09:20 31.13363 121.81910 28 ft 23 kts 162°
2026-05-07 09:20 31.13212 121.81968 26 ft 22 kts 161°
2026-05-07 09:21 31.13098 121.82021 27 ft 12 kts 126°
2026-05-07 09:21 31.13107 121.82079 27 ft 0 kts 69°
2026-05-07 09:21 31.13108 121.82081 27 ft 0 kts 69°
2026-05-07 09:21 31.13110 121.82085 26 ft 1 kts 69°
2026-05-07 09:22 31.13112 121.82095 26 ft 5 kts 73°
2026-05-07 09:22 31.13140 121.82199 26 ft 20 kts 67°
2026-05-07 09:22 31.13201 121.82208 25 ft 13 kts 316°
2026-05-07 09:22 31.13375 121.82132 26 ft 54 kts 342°
2026-05-07 09:23 31.13938 121.81921 28 ft 114 kts 342°
2026-05-07 09:23 31.14873 121.81585 38 ft 162 kts 346°
2026-05-07 09:23 31.15973 121.81261 482 ft 165 kts 354°
2026-05-07 09:23 31.17104 121.81188 1080 ft 163 kts
2026-05-07 09:24 31.18299 121.81343 1364 ft 183 kts
2026-05-07 09:24 31.19625 121.81583 1578 ft 203 kts
2026-05-07 09:24 31.21115 121.81859 1701 ft 231 kts
2026-05-07 09:24 31.22780 121.82160 2020 ft 248 kts
2026-05-07 09:25 31.24487 121.82468 2716 ft 249 kts
2026-05-07 09:25 31.26190 121.82773 3187 ft 254 kts
2026-05-07 09:25 31.27988 121.83092 3444 ft 268 kts
2026-05-07 09:25 31.29858 121.83424 3863 ft 271 kts
2026-05-07 09:26 31.31736 121.83758 4229 ft 280 kts
2026-05-07 09:26 31.33715 121.84109 4397 ft 294 kts
2026-05-07 09:26 31.35780 121.84475 4547 ft 307 kts
2026-05-07 09:26 31.37816 121.85393 4701 ft 322 kts 26°
2026-05-07 09:27 31.39880 121.86441 4942 ft 326 kts 10°
2026-05-07 09:27 31.42140 121.86393 5091 ft 331 kts 343°
2026-05-07 09:27 31.45565 121.82935 5328 ft 342 kts 292°
2026-05-07 09:28 31.46031 121.80198 5424 ft 349 kts 269°
2026-05-07 09:28 31.45767 121.77350 5534 ft 355 kts 263°
2026-05-07 09:28 31.45467 121.74463 5670 ft 358 kts 264°
2026-05-07 09:28 31.45275 121.71549 5872 ft 360 kts 266°
2026-05-07 09:29 31.45167 121.68608 6051 ft 362 kts 268°
2026-05-07 09:29 31.45110 121.65655 6221 ft 364 kts 269°
2026-05-07 09:29 31.45081 121.62708 6475 ft 363 kts 270°
2026-05-07 09:29 31.45066 121.59754 6615 ft 365 kts 270°
2026-05-07 09:30 31.45059 121.56783 6796 ft 366 kts 270°
2026-05-07 09:30 31.45056 121.53786 6847 ft 371 kts 270°
2026-05-07 09:30 31.45055 121.50784 7169 ft 366 kts 270°
2026-05-07 09:30 31.45053 121.47804 7386 ft 364 kts 270°
2026-05-07 09:31 31.45053 121.44857 7667 ft 362 kts 270°
2026-05-07 09:31 31.45051 121.41883 7716 ft 367 kts 270°
2026-05-07 09:31 31.45050 121.38937 7869 ft 369 kts 270°
2026-05-07 09:31 31.45047 121.35894 8036 ft 370 kts 270°
2026-05-07 09:32 31.45045 121.32928 8225 ft 369 kts 270°
2026-05-07 09:32 31.45041 121.29918 8420 ft 369 kts 270°
2026-05-07 09:32 31.45037 121.26927 8617 ft 369 kts 270°
2026-05-07 09:32 31.45031 121.23909 8702 ft 372 kts 270°
2026-05-07 09:33 31.45025 121.20861 8754 ft 376 kts 270°
2026-05-07 09:33 31.45039 121.17794 8902 ft 376 kts 271°
2026-05-07 09:33 31.45423 121.14786 9109 ft 376 kts 288°
2026-05-07 09:33 31.46650 121.12087 9297 ft 378 kts 305°
2026-05-07 09:34 31.48545 121.09941 9433 ft 384 kts 322°
2026-05-07 09:34 31.50899 121.08426 9497 ft 389 kts 332°
2026-05-07 09:34 31.53370 121.07126 9660 ft 389 kts 333°
2026-05-07 09:34 31.55847 121.05849 9785 ft 390 kts 333°
2026-05-07 09:35 31.58334 121.04554 9907 ft 391 kts 333°
2026-05-07 09:35 31.60823 121.03246 9979 ft 393 kts 333°
2026-05-07 09:35 31.63313 121.01930 10089 ft 393 kts 333°
2026-05-07 09:35 31.65807 121.00607 10229 ft 393 kts 333°
2026-05-07 09:36 31.68297 120.99284 10381 ft 392 kts 333°
2026-05-07 09:36 31.70779 120.97966 10618 ft 390 kts 333°
2026-05-07 09:36 31.73248 120.96653 10728 ft 391 kts 333°
2026-05-07 09:36 31.75736 120.95322 10774 ft 394 kts 333°
2026-05-07 09:37 31.78231 120.93987 10956 ft 393 kts 333°
2026-05-07 09:37 31.80702 120.92666 11214 ft 389 kts 333°
2026-05-07 09:37 31.83139 120.91362 11274 ft 391 kts 333°
2026-05-07 09:37 31.85624 120.90031 11349 ft 393 kts 334°
2026-05-07 09:38 31.88122 120.88694 11387 ft 395 kts 333°
2026-05-07 09:38 31.90625 120.87354 11504 ft 396 kts 333°
2026-05-07 09:38 31.93138 120.86006 11571 ft 397 kts 333°
2026-05-07 09:38 31.95644 120.84664 11750 ft 396 kts 333°
2026-05-07 09:39 31.98141 120.83321 11932 ft 394 kts 333°
2026-05-07 09:39 32.00645 120.81974 11984 ft 396 kts 333°
2026-05-07 09:39 32.03158 120.80621 12055 ft 398 kts 333°
2026-05-07 09:39 32.05668 120.79270 12232 ft 396 kts 333°
2026-05-07 09:40 32.08183 120.77916 12281 ft 398 kts 333°
2026-05-07 09:40 32.10687 120.76524 12450 ft 396 kts 330°
2026-05-07 09:40 32.12993 120.74774 12547 ft 394 kts 320°
2026-05-07 09:40 32.14914 120.72475 12596 ft 394 kts 307°
2026-05-07 09:41 32.16320 120.69731 12809 ft 390 kts 294°
2026-05-07 09:41 32.17175 120.66688 12865 ft 393 kts 283°
2026-05-07 09:41 32.17642 120.63510 12937 ft 395 kts 278°
2026-05-07 09:41 32.17954 120.60281 13023 ft 396 kts 276°
2026-05-07 09:42 32.18191 120.57047 13157 ft 396 kts 275°
2026-05-07 09:42 32.18408 120.53807 13274 ft 396 kts 275°
2026-05-07 09:42 32.18630 120.50568 13366 ft 397 kts 276°
2026-05-07 09:42 32.18864 120.47357 13450 ft 398 kts 276°
2026-05-07 09:43 32.19115 120.44093 13499 ft 400 kts 276°
2026-05-07 09:43 32.19380 120.40787 13652 ft 399 kts 276°
2026-05-07 09:43 32.19642 120.37572 13786 ft 399 kts 276°
2026-05-07 09:43 32.19896 120.34305 13816 ft 402 kts 275°
2026-05-07 09:44 32.19890 120.31000 13861 ft 404 kts 267°
2026-05-07 09:44 32.19451 120.27711 13905 ft 408 kts 258°
2026-05-07 09:44 32.18516 120.24542 14018 ft 410 kts 249°
2026-05-07 09:44 32.17319 120.21495 14149 ft 409 kts 246°
2026-05-07 09:45 32.16006 120.18520 14249 ft 410 kts 244°
2026-05-07 09:45 32.14628 120.15558 14309 ft 412 kts 243°
2026-05-07 09:45 32.13236 120.12620 14480 ft 409 kts 243°
2026-05-07 09:45 32.11850 120.09689 14568 ft 410 kts 243°
2026-05-07 09:46 32.10476 120.06760 14866 ft 403 kts 244°
2026-05-07 09:46 32.09148 120.03911 15529 ft 389 kts 244°
2026-05-07 09:46 32.07864 120.01139 16022 ft 384 kts 244°
2026-05-07 09:46 32.06586 119.98365 16237 ft 385 kts 244°
2026-05-07 09:47 32.05329 119.95634 16880 ft 374 kts 244°
2026-05-07 09:47 32.04098 119.92954 17353 ft 369 kts 245°
2026-05-07 09:47 32.02887 119.90289 17682 ft 369 kts 245°
2026-05-07 09:47 32.01684 119.87622 17957 ft 370 kts 245°
2026-05-07 09:48 32.00476 119.84942 18199 ft 371 kts 245°
2026-05-07 09:48 31.99263 119.82251 18416 ft 372 kts 245°
2026-05-07 09:48 31.98045 119.79555 18583 ft 374 kts 245°
2026-05-07 09:48 31.96836 119.76884 18794 ft 374 kts 245°
2026-05-07 09:49 31.95609 119.74180 19009 ft 375 kts 245°
2026-05-07 09:49 31.94380 119.71468 19210 ft 376 kts 245°
2026-05-07 09:49 31.93173 119.68733 19420 ft 376 kts 245°
2026-05-07 09:49 31.91987 119.65983 19625 ft 377 kts 246°
2026-05-07 09:50 31.90810 119.63223 19826 ft 378 kts 246°
2026-05-07 09:50 31.89633 119.60455 20030 ft 379 kts 246°
2026-05-07 09:50 31.88453 119.57684 20243 ft 379 kts 246°
2026-05-07 09:50 31.87267 119.54908 20452 ft 380 kts 246°
2026-05-07 09:51 31.86078 119.52130 20653 ft 381 kts 246°
2026-05-07 09:51 31.84881 119.49342 20873 ft 382 kts 246°
2026-05-07 09:51 31.83681 119.46553 21076 ft 382 kts 246°
2026-05-07 09:51 31.82479 119.43762 21305 ft 383 kts 246°
2026-05-07 09:52 31.81277 119.40971 21508 ft 384 kts 246°
2026-05-07 09:52 31.80065 119.38172 21695 ft 385 kts 245°
2026-05-07 09:52 31.78840 119.35368 21912 ft 386 kts 245°
2026-05-07 09:52 31.77608 119.32563 22116 ft 387 kts 245°
2026-05-07 09:53 31.76373 119.29760 22318 ft 388 kts 245°
2026-05-07 09:53 31.75130 119.26940 22529 ft 389 kts 245°
2026-05-07 09:53 31.73886 119.24118 22714 ft 390 kts 245°
2026-05-07 09:53 31.72637 119.21287 22918 ft 391 kts 245°
2026-05-07 09:54 31.71386 119.18450 23117 ft 392 kts 245°
2026-05-07 09:54 31.70145 119.15639 23313 ft 393 kts 245°
2026-05-07 09:54 31.68869 119.12749 23537 ft 394 kts 245°
2026-05-07 09:54 31.67625 119.09932 23664 ft 396 kts 246°
2026-05-07 09:55 31.66466 119.07008 23795 ft 395 kts 252°
2026-05-07 09:55 31.65695 119.03929 24003 ft 393 kts 261°
2026-05-07 09:55 31.65413 119.00747 24168 ft 392 kts 270°
2026-05-07 09:55 31.65462 118.97549 24343 ft 393 kts 273°
2026-05-07 09:56 31.65642 118.94349 24542 ft 393 kts 275°
2026-05-07 09:56 31.65889 118.91156 24740 ft 393 kts 275°
2026-05-07 09:56 31.66161 118.87964 24916 ft 393 kts 275°
2026-05-07 09:56 31.66434 118.84768 25073 ft 394 kts 275°
2026-05-07 09:57 31.66698 118.81563 25233 ft 395 kts 275°
2026-05-07 09:57 31.66953 118.78343 25400 ft 396 kts 275°
2026-05-07 09:57 31.67199 118.75117 25570 ft 397 kts 275°
2026-05-07 09:57 31.67439 118.71891 25717 ft 398 kts 275°
2026-05-07 09:58 31.67675 118.68677 25873 ft 399 kts 275°
2026-05-07 09:58 31.67912 118.65428 26040 ft 399 kts 275°
2026-05-07 09:58 31.68148 118.62181 26199 ft 399 kts 275°
2026-05-07 09:58 31.68383 118.58933 26347 ft 400 kts 275°
2026-05-07 09:59 31.68619 118.55666 26503 ft 401 kts 275°
2026-05-07 09:59 31.68854 118.52403 26643 ft 402 kts 275°
2026-05-07 09:59 31.69090 118.49131 26788 ft 403 kts 275°
2026-05-07 09:59 31.69324 118.45861 26925 ft 403 kts 274°
2026-05-07 10:00 31.69559 118.42569 27078 ft 404 kts 274°
2026-05-07 10:00 31.69793 118.39285 27225 ft 404 kts 274°
2026-05-07 10:00 31.70027 118.35990 27352 ft 405 kts 274°
2026-05-07 10:00 31.70261 118.32678 27437 ft 407 kts 274°
2026-05-07 10:01 31.70494 118.29361 27580 ft 408 kts 274°
2026-05-07 10:01 31.70727 118.26044 27714 ft 409 kts 274°
2026-05-07 10:01 31.70960 118.22710 27841 ft 409 kts 274°
2026-05-07 10:01 31.71192 118.19377 27964 ft 410 kts 274°
2026-05-07 10:02 31.71423 118.16044 28090 ft 411 kts 274°
2026-05-07 10:02 31.71889 118.09342 28345 ft 412 kts 274°
2026-05-07 10:03 31.72380 118.02610 28530 ft 415 kts 274°
2026-05-07 10:03 31.72626 117.99275 28646 ft 416 kts 274°
2026-05-07 10:03 31.72875 117.95901 28827 ft 415 kts 274°
2026-05-07 10:03 31.73122 117.92535 29046 ft 413 kts 275°
2026-05-07 10:04 31.73288 117.90269 29225 ft 411 kts 275°
2026-05-07 10:04 31.73608 117.85848 29521 ft 409 kts 275°
2026-05-07 10:04 31.73771 117.83601 29650 ft 409 kts 275°
2026-05-07 10:04 31.74007 117.80316 29845 ft 408 kts 274°
2026-05-07 10:05 31.74324 117.75873 30100 ft 408 kts 274°
2026-05-07 10:05 31.74481 117.73676 30206 ft 407 kts 274°
2026-05-07 10:05 31.74717 117.70360 30361 ft 407 kts 274°
2026-05-07 10:05 31.75030 117.65933 30566 ft 406 kts 274°
2026-05-07 10:06 31.75184 117.63744 30671 ft 406 kts 274°
2026-05-07 10:06 31.75417 117.60436 30829 ft 406 kts 274°
2026-05-07 10:06 31.75648 117.57133 30994 ft 405 kts 274°
2026-05-07 10:06 31.75877 117.53840 31172 ft 405 kts 274°
2026-05-07 10:07 31.76106 117.50548 31343 ft 404 kts 274°
2026-05-07 10:07 31.76334 117.47260 31523 ft 404 kts 274°
2026-05-07 10:07 31.76561 117.43967 31652 ft 404 kts 274°
2026-05-07 10:07 31.76787 117.40678 31806 ft 404 kts 274°
2026-05-07 10:08 31.77022 117.37384 31988 ft 404 kts 276°
2026-05-07 10:08 31.77482 117.34135 32184 ft 404 kts 282°
2026-05-07 10:08 31.78302 117.30978 32359 ft 405 kts 289°
2026-05-07 10:08 31.79517 117.27980 32550 ft 408 kts 297°
2026-05-07 10:09 31.81117 117.25215 32727 ft 410 kts 303°
2026-05-07 10:09 31.82889 117.22592 32919 ft 411 kts 305°
2026-05-07 10:09 31.84730 117.20014 33106 ft 411 kts 306°
2026-05-07 10:09 31.86596 117.17464 33311 ft 411 kts 306°
2026-05-07 10:10 31.88465 117.14926 33526 ft 410 kts 306°
2026-05-07 10:10 31.90329 117.12388 33732 ft 409 kts 306°
2026-05-07 10:10 31.92182 117.09849 33921 ft 408 kts 306°
2026-05-07 10:10 31.94022 117.07311 34120 ft 408 kts 306°
2026-05-07 10:11 31.95860 117.04766 34270 ft 407 kts 306°
2026-05-07 10:11 31.97690 117.02224 34449 ft 406 kts 306°
2026-05-07 10:11 31.99513 116.99693 34636 ft 404 kts 306°
2026-05-07 10:11 32.01332 116.97170 34801 ft 403 kts 306°
2026-05-07 10:12 32.03147 116.94654 34971 ft 402 kts 306°
2026-05-07 10:12 32.04951 116.92152 35120 ft 401 kts 306°
2026-05-07 10:12 32.06758 116.89646 35262 ft 400 kts 306°
2026-05-07 10:12 32.08559 116.87145 35401 ft 399 kts 306°
2026-05-07 10:13 32.10354 116.84652 35556 ft 398 kts 306°
2026-05-07 10:13 32.12145 116.82161 35695 ft 398 kts 306°
2026-05-07 10:13 32.13934 116.79674 35830 ft 397 kts 306°
2026-05-07 10:13 32.15716 116.77193 35967 ft 396 kts 306°
2026-05-07 10:14 32.17494 116.74715 36108 ft 395 kts 306°
2026-05-07 10:14 32.21010 116.69753 36172 ft 392 kts 305°
2026-05-07 10:15 32.24434 116.64820 36181 ft 391 kts 304°
2026-05-07 10:15 32.27870 116.59851 36173 ft 391 kts 304°
2026-05-07 10:16 32.31314 116.54875 36188 ft 391 kts 304°
2026-05-07 10:16 32.34741 116.49926 36178 ft 388 kts 304°
2026-05-07 10:17 32.38151 116.44995 36181 ft 387 kts 304°
2026-05-07 10:17 32.41557 116.40061 36179 ft 387 kts 304°
2026-05-07 10:18 32.44965 116.35119 36178 ft 387 kts 304°
2026-05-07 10:18 32.48371 116.30174 36181 ft 387 kts 304°
2026-05-07 10:19 32.51772 116.25229 36186 ft 387 kts 304°
2026-05-07 10:19 32.55175 116.20276 36181 ft 387 kts 304°
2026-05-07 10:20 32.58605 116.15349 36184 ft 388 kts 305°
2026-05-07 10:20 32.62063 116.10488 36183 ft 388 kts 305°
2026-05-07 10:21 32.65545 116.05602 36217 ft 388 kts 305°
2026-05-07 10:21 32.69020 116.00712 36186 ft 387 kts 305°
2026-05-07 10:22 32.72480 115.95825 36188 ft 387 kts 305°
2026-05-07 10:22 32.75941 115.90929 36185 ft 387 kts 305°
2026-05-07 10:23 32.79399 115.86031 36184 ft 387 kts 305°
2026-05-07 10:23 32.82858 115.81125 36199 ft 387 kts 305°
2026-05-07 10:24 32.86314 115.76218 36195 ft 387 kts 305°
2026-05-07 10:24 32.89793 115.71325 36186 ft 388 kts 306°
2026-05-07 10:25 32.93334 115.66484 36187 ft 388 kts 306°
2026-05-07 10:25 32.96886 115.61651 36194 ft 388 kts 306°
2026-05-07 10:26 33.00429 115.56815 36243 ft 387 kts 306°
2026-05-07 10:26 33.03961 115.51977 36203 ft 386 kts 306°
2026-05-07 10:27 33.07481 115.47146 36200 ft 386 kts 306°
2026-05-07 10:27 33.10999 115.42309 36202 ft 386 kts 306°
2026-05-07 10:28 33.14515 115.37470 36204 ft 386 kts 305°
2026-05-07 10:28 33.18029 115.32627 36199 ft 386 kts 305°
2026-05-07 10:29 33.21544 115.27776 36204 ft 387 kts 305°
2026-05-07 10:29 33.25065 115.22912 36208 ft 387 kts 305°
2026-05-07 10:30 33.30342 115.15609 36214 ft 387 kts 305°
2026-05-07 10:30 33.33856 115.10737 36212 ft 387 kts 305°
2026-05-07 10:31 33.37369 115.05862 36211 ft 387 kts 305°
2026-05-07 10:31 33.40881 115.00979 36225 ft 387 kts 305°
2026-05-07 10:32 33.44370 114.96127 36218 ft 383 kts 305°
2026-05-07 10:32 33.47835 114.91297 36219 ft 381 kts 305°
2026-05-07 10:33 33.51291 114.86471 36218 ft 381 kts 305°
2026-05-07 10:33 33.54740 114.81648 36219 ft 381 kts 305°
2026-05-07 10:34 33.58168 114.76851 36222 ft 381 kts 305°
2026-05-07 10:34 33.61677 114.72018 36222 ft 382 kts 306°
2026-05-07 10:35 33.65181 114.67286 36220 ft 382 kts 307°
2026-05-07 10:35 33.69152 114.62983 36236 ft 388 kts 313°
2026-05-07 10:36 33.73363 114.58895 36224 ft 390 kts 314°
2026-05-07 10:36 33.77619 114.54842 36224 ft 391 kts 314°
2026-05-07 10:37 33.81879 114.50781 36224 ft 391 kts 314°
2026-05-07 10:37 33.86152 114.46743 36223 ft 391 kts 314°
2026-05-07 10:38 33.90437 114.42718 36224 ft 391 kts 314°
2026-05-07 10:38 33.94720 114.38689 36230 ft 390 kts 314°
2026-05-07 10:39 33.98996 114.34655 36227 ft 390 kts 314°
2026-05-07 10:39 34.03268 114.30618 36227 ft 390 kts 314°
2026-05-07 10:40 34.07536 114.26579 36232 ft 390 kts 314°
2026-05-07 10:40 34.11803 114.22536 36232 ft 390 kts 314°
2026-05-07 10:41 34.16067 114.18490 36232 ft 390 kts 314°
2026-05-07 10:41 34.20332 114.14438 36235 ft 390 kts 314°
2026-05-07 10:42 34.24592 114.10386 36235 ft 390 kts 314°
2026-05-07 10:42 34.28848 114.06332 36287 ft 390 kts 314°
2026-05-07 10:43 34.33095 114.02283 36245 ft 388 kts 314°
2026-05-07 10:43 34.37329 113.98239 36235 ft 388 kts 314°
2026-05-07 10:44 34.41560 113.94191 36235 ft 388 kts 314°
2026-05-07 10:44 34.45790 113.90140 36252 ft 388 kts 314°
2026-05-07 10:45 34.50084 113.86163 36267 ft 392 kts 319°
2026-05-07 10:45 34.55116 113.83310 36264 ft 409 kts 332°
2026-05-07 10:46 34.60605 113.81337 36259 ft 413 kts 334°
2026-05-07 10:46 34.66129 113.79557 36254 ft 414 kts 335°
2026-05-07 10:47 34.71701 113.77766 36251 ft 414 kts 335°
2026-05-07 10:47 34.77256 113.75945 36252 ft 413 kts 334°
2026-05-07 10:48 34.82800 113.74107 36271 ft 413 kts 335°
2026-05-07 10:48 34.88296 113.72154 36251 ft 409 kts 332°
2026-05-07 10:49 34.93629 113.69837 36253 ft 406 kts 330°
2026-05-07 10:49 34.98929 113.67430 36253 ft 406 kts 330°
2026-05-07 10:50 35.04235 113.65048 36253 ft 407 kts 330°
2026-05-07 10:50 35.09551 113.62692 36270 ft 407 kts 331°
2026-05-07 10:51 35.14882 113.60336 36257 ft 407 kts 331°
2026-05-07 10:51 35.19311 113.58377 36257 ft 407 kts 331°
2026-05-07 10:52 35.24642 113.56015 36259 ft 407 kts 331°
2026-05-07 10:52 35.29970 113.53650 36259 ft 407 kts 331°
2026-05-07 10:53 35.35293 113.51284 36268 ft 408 kts 331°
2026-05-07 10:53 35.40641 113.48900 36264 ft 410 kts 331°
2026-05-07 10:54 35.45998 113.46516 36265 ft 410 kts 331°
2026-05-07 10:54 35.51369 113.44137 36262 ft 410 kts 331°
2026-05-07 10:55 35.56722 113.41748 36269 ft 410 kts 331°
2026-05-07 10:55 35.62101 113.39362 36276 ft 412 kts 331°
2026-05-07 10:56 35.67485 113.36975 36273 ft 411 kts 330°
2026-05-07 10:56 35.72866 113.34580 36272 ft 411 kts 330°
2026-05-07 10:57 35.78242 113.32178 36269 ft 411 kts 330°
2026-05-07 10:57 35.83621 113.29771 36266 ft 411 kts 330°
2026-05-07 10:58 35.88993 113.27372 36268 ft 408 kts 330°
2026-05-07 10:58 35.94314 113.25000 36263 ft 406 kts 330°
2026-05-07 10:59 35.99621 113.22630 36253 ft 406 kts 330°
2026-05-07 10:59 36.04886 113.20269 36254 ft 405 kts 330°
2026-05-07 11:00 36.10188 113.17889 36263 ft 405 kts 330°
2026-05-07 11:00 36.15478 113.15512 36263 ft 403 kts 330°
2026-05-07 11:01 36.20751 113.13140 36262 ft 403 kts 330°
2026-05-07 11:01 36.26124 113.11012 36262 ft 408 kts 334°
2026-05-07 11:02 36.31624 113.09183 36252 ft 410 kts 335°
2026-05-07 11:02 36.37137 113.07401 36265 ft 409 kts 335°
2026-05-07 11:03 36.42634 113.05627 36249 ft 407 kts 335°
2026-05-07 11:03 36.48106 113.03849 36251 ft 407 kts 335°
2026-05-07 11:04 36.53590 113.02059 36250 ft 407 kts 334°
2026-05-07 11:04 36.59074 113.00267 36252 ft 407 kts 334°
2026-05-07 11:05 36.64556 112.98475 36259 ft 407 kts 335°
2026-05-07 11:05 36.70041 112.96679 36248 ft 407 kts 335°
2026-05-07 11:06 36.75528 112.94880 36260 ft 408 kts 334°
2026-05-07 11:06 36.81009 112.93081 36256 ft 407 kts 334°
2026-05-07 11:07 36.86489 112.91278 36265 ft 406 kts 334°
2026-05-07 11:07 36.91934 112.89489 36259 ft 404 kts 334°
2026-05-07 11:08 36.97365 112.87698 36265 ft 403 kts 334°
2026-05-07 11:08 37.02798 112.85902 36264 ft 404 kts 334°
2026-05-07 11:09 37.08228 112.84105 36308 ft 404 kts 334°
2026-05-07 11:09 37.13641 112.82321 36275 ft 401 kts 334°
2026-05-07 11:10 37.19040 112.80535 36268 ft 401 kts 334°
2026-05-07 11:10 37.24392 112.78756 36277 ft 401 kts 334°
2026-05-07 11:11 37.29801 112.76965 36275 ft 401 kts 334°
2026-05-07 11:11 37.35179 112.75185 36270 ft 397 kts 333°
2026-05-07 11:12 37.40506 112.73416 36275 ft 395 kts 333°
2026-05-07 11:12 37.45811 112.71642 36267 ft 395 kts 333°
2026-05-07 11:13 37.51115 112.69868 36261 ft 395 kts 333°
2026-05-07 11:13 37.56426 112.68092 36288 ft 395 kts 333°
2026-05-07 11:14 37.61709 112.66330 36258 ft 391 kts 333°
2026-05-07 11:14 37.66954 112.64579 36258 ft 390 kts 333°
2026-05-07 11:15 37.72193 112.62826 36257 ft 390 kts 333°
2026-05-07 11:15 37.77489 112.61206 36257 ft 394 kts 335°
2026-05-07 11:16 37.82891 112.59917 36257 ft 393 kts 336°
2026-05-07 11:16 37.88251 112.58712 36260 ft 390 kts 336°
2026-05-07 11:17 37.93591 112.57490 36265 ft 390 kts 336°
2026-05-07 11:17 37.98921 112.56249 36281 ft 390 kts 336°
2026-05-07 11:18 38.04255 112.55001 36290 ft 389 kts 336°
2026-05-07 11:18 38.09551 112.53764 36286 ft 385 kts 336°
2026-05-07 11:19 38.14781 112.52536 36284 ft 385 kts 336°
2026-05-07 11:19 38.20047 112.51289 36288 ft 385 kts 336°
2026-05-07 11:20 38.25321 112.50046 36344 ft 385 kts 336°
2026-05-07 11:20 38.30572 112.48814 36290 ft 383 kts 336°
2026-05-07 11:21 38.35807 112.47581 36185 ft 382 kts 336°
2026-05-07 11:21 38.38411 112.46969 35831 ft 379 kts 336°
2026-05-07 11:21 38.41010 112.46355 35219 ft 381 kts 336°
2026-05-07 11:22 38.43624 112.45732 34575 ft 383 kts 336°
2026-05-07 11:22 38.46246 112.45101 33955 ft 384 kts 336°
2026-05-07 11:22 38.48884 112.44464 33124 ft 389 kts 337°
2026-05-07 11:22 38.51568 112.43816 32102 ft 394 kts 339°
2026-05-07 11:23 38.54269 112.43166 31005 ft 398 kts 340°
2026-05-07 11:23 38.57015 112.42508 29871 ft 403 kts 341°
2026-05-07 11:23 38.59757 112.41856 29034 ft 397 kts 341°
2026-05-07 11:23 38.62441 112.41215 28278 ft 389 kts 342°
2026-05-07 11:24 38.65086 112.40576 27483 ft 384 kts 342°
2026-05-07 11:24 38.67694 112.39948 26729 ft 378 kts 343°
2026-05-07 11:24 38.70230 112.39340 26003 ft 373 kts 343°
2026-05-07 11:24 38.72766 112.38730 25340 ft 367 kts 344°
2026-05-07 11:25 38.75253 112.38134 24672 ft 362 kts 344°
2026-05-07 11:25 38.77713 112.37545 23997 ft 357 kts 345°
2026-05-07 11:25 38.80138 112.36951 23225 ft 353 kts 345°
2026-05-07 11:25 38.82540 112.36373 22401 ft 350 kts 346°
2026-05-07 11:26 38.84919 112.35797 21591 ft 347 kts 346°
2026-05-07 11:26 38.87278 112.35225 20813 ft 343 kts 346°
2026-05-07 11:26 38.89613 112.34658 20067 ft 340 kts 347°
2026-05-07 11:26 38.91925 112.34095 19329 ft 337 kts 347°
2026-05-07 11:27 38.94222 112.33539 18583 ft 335 kts 348°
2026-05-07 11:27 38.96499 112.32987 17924 ft 332 kts 348°
2026-05-07 11:27 38.98773 112.32433 17653 ft 333 kts 348°
2026-05-07 11:27 39.01051 112.31879 17616 ft 333 kts 348°
2026-05-07 11:28 39.03331 112.31324 17616 ft 333 kts 348°
2026-05-07 11:28 39.05603 112.30770 17615 ft 333 kts 348°
2026-05-07 11:28 39.07880 112.30216 17614 ft 333 kts 348°
2026-05-07 11:28 39.10155 112.29661 17616 ft 333 kts 348°
2026-05-07 11:29 39.12435 112.29105 17613 ft 333 kts 348°
2026-05-07 11:29 39.14707 112.28550 17612 ft 333 kts 348°
2026-05-07 11:29 39.16986 112.27994 17612 ft 334 kts 347°
2026-05-07 11:29 39.19273 112.27435 17611 ft 336 kts 348°
2026-05-07 11:30 39.21572 112.26875 17613 ft 336 kts 348°
2026-05-07 11:30 39.23873 112.26314 17614 ft 336 kts 348°
2026-05-07 11:30 39.26142 112.25757 17606 ft 336 kts 348°
2026-05-07 11:30 39.28442 112.25192 17608 ft 336 kts 348°
2026-05-07 11:31 39.30770 112.24620 17609 ft 336 kts 348°
2026-05-07 11:31 39.33065 112.24054 17612 ft 336 kts 348°
2026-05-07 11:31 39.35329 112.23498 17607 ft 336 kts 348°
2026-05-07 11:31 39.37626 112.22935 17608 ft 336 kts 348°
2026-05-07 11:32 39.42231 112.21803 17612 ft 338 kts 347°
2026-05-07 11:32 39.44537 112.21234 17609 ft 339 kts 348°
2026-05-07 11:32 39.46855 112.20663 17604 ft 339 kts 348°
2026-05-07 11:33 39.49183 112.20179 17608 ft 340 kts 352°
2026-05-07 11:33 39.51545 112.20003 17606 ft 340 kts 355°
2026-05-07 11:33 39.53917 112.19924 17603 ft 341 kts 356°
2026-05-07 11:33 39.56288 112.19861 17605 ft 341 kts 356°
2026-05-07 11:34 39.58658 112.19797 17608 ft 341 kts 356°
2026-05-07 11:34 39.61028 112.19732 17606 ft 341 kts 356°
2026-05-07 11:34 39.63399 112.19664 17603 ft 341 kts 356°
2026-05-07 11:34 39.65773 112.19595 17602 ft 341 kts 356°
2026-05-07 11:35 39.68145 112.19528 17602 ft 341 kts 356°
2026-05-07 11:35 39.70514 112.19458 17602 ft 341 kts 356°
2026-05-07 11:35 39.72890 112.19387 17603 ft 341 kts 356°
2026-05-07 11:35 39.75264 112.19316 17601 ft 341 kts 356°
2026-05-07 11:36 39.77634 112.19246 17600 ft 341 kts 356°
2026-05-07 11:36 39.80011 112.19176 17598 ft 341 kts 356°
2026-05-07 11:36 39.82383 112.19106 17599 ft 341 kts 356°
2026-05-07 11:36 39.84752 112.19035 17593 ft 340 kts 356°
2026-05-07 11:37 39.87120 112.18965 17596 ft 340 kts 356°
2026-05-07 11:37 39.89485 112.18895 17594 ft 340 kts 356°
2026-05-07 11:37 39.91853 112.18825 17590 ft 340 kts 356°
2026-05-07 11:37 39.94225 112.18754 17600 ft 341 kts 356°
2026-05-07 11:38 39.96593 112.18684 17589 ft 341 kts 356°
2026-05-07 11:38 39.98962 112.18614 17589 ft 340 kts 356°
2026-05-07 11:38 40.01330 112.18544 17587 ft 340 kts 356°
2026-05-07 11:38 40.02898 112.18498 17596 ft 341 kts 356°
2026-05-07 11:39 40.05271 112.18427 17587 ft 341 kts 356°
2026-05-07 11:39 40.08449 112.18333 17588 ft 341 kts 356°
2026-05-07 11:39 40.10019 112.18286 17585 ft 341 kts 356°
2026-05-07 11:39 40.12389 112.18215 17584 ft 341 kts 356°
2026-05-07 11:40 40.15561 112.18120 17584 ft 341 kts 356°
2026-05-07 11:40 40.17129 112.18074 17589 ft 341 kts 356°
2026-05-07 11:40 40.19497 112.18003 17581 ft 341 kts 356°
2026-05-07 11:40 40.21868 112.17933 17583 ft 341 kts 356°
2026-05-07 11:41 40.24222 112.17859 17370 ft 336 kts 356°
2026-05-07 11:41 40.26552 112.17778 16794 ft 336 kts 356°
2026-05-07 11:41 40.28890 112.17694 16202 ft 336 kts 356°
2026-05-07 11:41 40.31978 112.17584 15474 ft 335 kts 356°
2026-05-07 11:42 40.33553 112.17529 15143 ft 334 kts 356°
2026-05-07 11:42 40.36609 112.17421 14838 ft 332 kts 356°
2026-05-07 11:42 40.38167 112.17336 14813 ft 328 kts 353°
2026-05-07 11:42 40.40341 112.16825 14815 ft 309 kts 343°
2026-05-07 11:43 40.42333 112.16010 14825 ft 292 kts 341°
2026-05-07 11:43 40.44187 112.15183 14812 ft 277 kts 340°
2026-05-07 11:43 40.45962 112.14383 14810 ft 262 kts 340°
2026-05-07 11:43 40.47643 112.13626 14806 ft 249 kts 340°
2026-05-07 11:44 40.49266 112.12894 14797 ft 245 kts 340°
2026-05-07 11:44 40.50881 112.12182 14809 ft 245 kts 342°
2026-05-07 11:44 40.52559 112.11805 14807 ft 245 kts 354°
2026-05-07 11:44 40.54243 112.11772 14610 ft 241 kts 357°
2026-05-07 11:45 40.55924 112.11841 14322 ft 241 kts 359°
2026-05-07 11:45 40.57575 112.11944 14147 ft 235 kts 359°
2026-05-07 11:45 40.59194 112.12055 13889 ft 232 kts 359°
2026-05-07 11:45 40.60813 112.12170 13542 ft 233 kts 359°
2026-05-07 11:46 40.62416 112.12287 13288 ft 227 kts 359°
2026-05-07 11:46 40.63956 112.12403 13052 ft 218 kts 359°
2026-05-07 11:46 40.65471 112.12515 12604 ft 219 kts 359°
2026-05-07 11:46 40.66999 112.12625 12132 ft 221 kts 359°
2026-05-07 11:47 40.68530 112.12612 11712 ft 219 kts 353°
2026-05-07 11:47 40.70046 112.12500 11359 ft 216 kts 353°
2026-05-07 11:47 40.71514 112.12376 11179 ft 206 kts 352°
2026-05-07 11:47 40.72920 112.12246 10906 ft 201 kts 352°
2026-05-07 11:48 40.74304 112.12109 10498 ft 199 kts 352°
2026-05-07 11:48 40.75689 112.11967 10055 ft 199 kts 351°
2026-05-07 11:48 40.77068 112.11823 9589 ft 198 kts 352°
2026-05-07 11:48 40.78445 112.11678 9100 ft 200 kts 352°
2026-05-07 11:49 40.79829 112.11532 8713 ft 199 kts 352°
2026-05-07 11:49 40.81201 112.11389 8391 ft 194 kts 352°
2026-05-07 11:49 40.82502 112.11255 8197 ft 180 kts 352°
2026-05-07 11:49 40.83715 112.11128 7983 ft 171 kts 352°
2026-05-07 11:50 40.84881 112.11005 7671 ft 167 kts 352°
2026-05-07 11:50 40.86035 112.10884 7355 ft 165 kts 353°
2026-05-07 11:50 40.87169 112.10764 7032 ft 162 kts 353°
2026-05-07 11:50 40.88287 112.10644 6662 ft 161 kts 352°
2026-05-07 11:51 40.89387 112.10359 6202 ft 161 kts 340°
2026-05-07 11:51 40.90372 112.09688 5786 ft 159 kts 304°
2026-05-07 11:51 40.90683 112.08342 5767 ft 159 kts 273°
2026-05-07 11:51 40.90617 112.06880 5715 ft 159 kts 258°
2026-05-07 11:52 40.90347 112.05458 5701 ft 159 kts 252°
2026-05-07 11:52 40.90026 112.04051 5704 ft 159 kts 251°
2026-05-07 11:52 40.89707 112.02695 5688 ft 150 kts 252°
2026-05-07 11:52 40.89403 112.01394 5691 ft 148 kts 252°
2026-05-07 11:53 40.89104 112.00096 5695 ft 147 kts 252°
2026-05-07 11:53 40.88798 111.98794 5694 ft 148 kts 252°
2026-05-07 11:53 40.88492 111.97489 5607 ft 149 kts 252°
2026-05-07 11:53 40.88186 111.96176 5433 ft 151 kts 253°
2026-05-07 11:54 40.87875 111.94848 5242 ft 152 kts 253°
2026-05-07 11:54 40.87564 111.93519 5027 ft 151 kts 253°
2026-05-07 11:54 40.87253 111.92194 4809 ft 150 kts 252°
2026-05-07 11:54 40.86945 111.90879 4593 ft 149 kts 252°
2026-05-07 11:55 40.86639 111.89578 4380 ft 148 kts 252°
2026-05-07 11:55 40.86336 111.88285 4185 ft 147 kts 251°
2026-05-07 11:55 40.86034 111.86995 3985 ft 146 kts 251°
2026-05-07 11:55 40.85733 111.85713 3802 ft 146 kts 251°
2026-05-07 11:56 40.85432 111.84432 3615 ft 144 kts 251°
2026-05-07 11:56 40.85159 111.83267 3557 ft 106 kts 253°
2026-05-07 11:56 40.85032 111.82714 3545 ft 24 kts 253°
2026-05-07 11:56 40.85009 111.82615 3546 ft 18 kts 253°
2026-05-07 11:57 40.84954 111.82371 3543 ft 33 kts 253°
2026-05-07 11:57 40.84906 111.82111 3540 ft 27 kts 268°
2026-05-07 11:57 40.84926 111.81891 3540 ft 20 kts 281°
2026-05-07 11:57 40.84990 111.81780 3540 ft 15 kts 359°
2026-05-07 11:58 40.85104 111.81737 3540 ft 20 kts 343°
2026-05-07 11:58 40.85236 111.81678 3540 ft 16 kts 326°
2026-05-07 11:58 40.85217 111.81525 3538 ft 21 kts 250°
2026-05-07 11:58 40.85198 111.81432 3537 ft 3 kts 255°
2026-05-07 11:59 40.85184 111.81362 3537 ft 14 kts 255°
2026-05-07 11:59 40.85171 111.81248 3535 ft 11 kts 301°
2026-05-07 11:59 40.85216 111.81223 3535 ft 5 kts 359°
2026-05-07 11:59 40.85245 111.81223 3536 ft 0 kts